{"data":{"norad_id":63457,"intl_designator":"2025-069AA","name":"STARLINK-33795","alt_names":[],"object_type":"PAYLOAD","status":"ACTIVE","operator":null,"country":"US","launch_date":"2025-04-04","launch_site_code":"AFWTR","launch_vehicle":null,"mission":null,"orbit_class":"UNKNOWN","rcs_meters":null,"size_class":null,"mass_kg":null,"dimensions":null,"purposes":["comms"],"wikipedia_slug":null,"has_3d_model":false,"image_url":null,"decayed_at":null,"tle_current":{"epoch":"2026-05-24T10:13:16.399200Z","epoch_age_seconds":128140,"freshness":"FRESH","line1":"1 63457U 25069AA  26144.42588425  .00047832  00000+0  11013-2 0  9993","line2":"2 63457  53.1581 148.3100 0000809  87.5732 272.5367 15.42174118 64923","mean_motion":15.42174118,"eccentricity":8.09e-5,"inclination_deg":53.1581,"raan_deg":148.31,"arg_perigee_deg":87.5732,"mean_anomaly_deg":272.5367,"bstar":0.0011013,"rev_number":6492,"period_min":93.37467042097,"perigee_km":439.14248113291,"apogee_km":440.24560619577,"semimajor_km":6817.8310436643,"source":"CELESTRAK","updated_at":"2026-05-25T13:38:20.003366Z"}}}